Skip Page Navigation
NASA JPL Caltech
NASA Logo - Jet Propulsion Laboratory + View the NASA Portal
+ Center for Near-Earth Object Studies
JPL Home Earth Solar System Stars & Galaxies Technology
JPL Solar System Dynamics
BODIES ORBITS EPHEMERIDES TOOLS PHYSICAL DATA DISCOVERY FAQ SITE MAP
JPL Small-Body Database Browser
Search: [ help ]  
185367 (2006 VW114)
Classification: Main-belt Asteroid          SPK-ID: 2185367
Ephemeris | Orbit Diagram | Orbital Elements | Mission Design | Physical Parameters | Discovery Circumstances | Close-Approach Data ]

[ show orbit diagram ]
Orbital Elements at Epoch 2459000.5 (2020-May-31.0) TDB
Reference: JPL 16 (heliocentric ecliptic J2000)
 Element Value Uncertainty (1-sigma)   Units 
e .1757071330382796 3.6668e-08  
a 2.567357441897296 2.0224e-08 au
q 2.11625442629703 9.3578e-08 au
i 3.66256028462186 5.3101e-06 deg
node 339.7751225841612 8.4008e-05 deg
peri 305.3122064527162 8.6248e-05 deg
M 208.8024729904089 2.1461e-05 deg
tp 2459631.559226348781
(2022-Feb-21.05922635)
9.1064e-05 TDB
period 1502.546542782741
4.11
1.7754e-05
4.861e-08
d
yr
n .2395932437029697 2.831e-09 deg/d
Q 3.018460457497561 2.3778e-08 au
  Orbit Determination Parameters
   # obs. used (total)      356  
   data-arc span      8743 days (23.94 yr)  
   first obs. used      1996-02-15  
   last obs. used      2020-01-23  
   planetary ephem.      DE431  
   SB-pert. ephem.      SB431-N16  
   condition code      0  
   norm. resid. RMS      .59015  
   source      ORB  
   producer      Otto Matic  
   solution date      2020-Feb-24 20:04:21  

Additional Information
 Earth MOID = 1.10247 au 
 Jupiter MOID = 2.15322 au 
 T_jup = 3.407 
[ hide covariance matrix ]
Orbital Elements at Epoch 2456941.5 (2014-Oct-11.0) TDB
Reference: JPL 16 (heliocentric ecliptic J2000)
 Element Value Uncertainty (1-sigma)   Units 
e .177030008478285 3.657e-08  
q 2.111792977262372 9.3401e-08 au
tp 2456627.296222207308
(2013-Nov-30.79622221)
8.8704e-05 TDB
node 339.8349850918564 8.3878e-05 deg
peri 305.2910419609772 8.6089e-05 deg
i 3.667181652871472 5.3128e-06 deg
  Orbit Determination Parameters
   # obs. used (total)      356  
   data-arc span      8743 days (23.94 yr)  
   first obs. used      1996-02-15  
   last obs. used      2020-01-23  
   planetary ephem.      DE431  
   SB-pert. ephem.      SB431-N16  
   condition code      0  
   norm. resid. RMS      .59015  
   source      ORB  
   producer      Otto Matic  
   solution date      2020-Feb-24 20:04:21  

Additional Information
 Jupiter MOID = 2.15322 au 
 T_jup = 3.407 
Orbit Covariance (6×6)
  e q tp node peri i
e 1.337354147699424E-15 -3.362297625494637E-15 -2.527407239776029E-13 1.285676507007881E-14 -1.0461032944392E-13 9.414641308873363E-16
q -3.362297625494637E-15 8.723732002832312E-15 4.180215607210901E-13 -3.58085190620343E-14 2.337118395109046E-13 -2.160550461936053E-15
tp -2.527407239776029E-13 4.180215607210901E-13 7.868336428208185E-9 4.81534287765469E-11 1.753329739068162E-9 -4.395858102339208E-13
node 1.285676507007881E-14 -3.58085190620343E-14 4.81534287765469E-11 7.035503882138665E-9 -7.010200268519296E-9 1.940431423271416E-10
peri -1.0461032944392E-13 2.337118395109046E-13 1.753329739068162E-9 -7.010200268519296E-9 7.411242471990143E-9 -1.937477048752806E-10
i 9.414641308873363E-16 -2.160550461936053E-15 -4.395858102339208E-13 1.940431423271416E-10 -1.937477048752806E-10 2.822547673467735E-11

Ephemeris | Orbit Diagram | Orbital Elements | Mission Design | Physical Parameters | Discovery Circumstances | Close-Approach Data ]

Physical Parameter Table
Parameter Symbol Value Units Sigma Reference Notes
absolute magnitude H 16.2   n/a MPO454276  

185367 (2006 VW114)          Discovered 2006-Nov-14 by Mt. Lemmon Survey at Mount Lemmon
Reference: 20080420/Numbers.arcLast Updated: 2008-04-23

[ show close-approach data ]
Alternate Designations
 2006 VW114 = 2008 AM78 
Ephemeris | Orbit Diagram | Orbital Elements | Mission Design | Physical Parameters | Discovery Circumstances | Close-Approach Data ]
ABOUT SSD CREDITS/AWARDS PRIVACY/COPYRIGHT GLOSSARY LINKS
FirstGov 2020-Jul-11 12:26 UT
(server date/time)  
NASA Home Page
Site Manager:   Ryan S. Park
Webmaster  Alan B. Chamberlin